Regional Weather Roundup
Issued by NWS

Home | Current Version | Previous Version | Text Only | Print | Product List | Glossary Off
Versions: 1 2 3 4 5 6 7 8 9 10 11 12 13 14 15 16 17 18 19 20 21 22 23 24 25 26 27 28 29 30 31 32 33 34 35 36 37 38 39 40 41 42 43 44 45 46 47 48 49 50

000
ASUS45 KABQ 311610
RWRNM
WEATHER ROUNDUP FOR NEW MEXICO
NATIONAL WEATHER SERVICE ALBUQUERQUE NM
900 AM MST SAT JAN 31 2015

NOTE: "FAIR" MEANS FEW OR NO CLOUDS BELOW 12,000 FEET AGL WITH NO
       SIGNIFICANT WEATHER OR OBSTRUCTIONS TO VISION.

      THIS PRODUCT IS RELEASED AS TWO VERSIONS.  ONE VERSION NEAR
      THE TOP OF THE HOUR CONTAINING PRELIMINARY DATA FROM ALBUQUERQUE
      AND OTHER STATIONS.  A FINAL VERSION WITH ADDITIONAL DATA IS
      ISSUED ABOUT 10 MINUTES AFTER THE HOUR.

NMZ501-503-504-510>518-311700-
NORTHWEST PLATEAU/NORTHCENTRAL MOUNTAINS

CITY           SKY/WX    TMP DP  RH WIND       PRES   REMARKS
FARMINGTON     CLOUDY    34  33  96 CALM      29.90S FOG
LOS ALAMOS     CLOUDY    29  29 100 S5        29.92S FOG     WCI  24
SANTA FE       LGT SNOW  31  27  85 S7        29.92S VSB 1   WCI  24
TAOS           CLOUDY    28  27  93 CALM      29.92S
ANGEL FIRE     CLOUDY    34  30  87 S5          N/A  WCI  30

$$
NMZ402-403-502-505>509-311700-
WESTCENTRAL MOUNTAINS/SOUTHWEST MOUNTAINS

CITY           SKY/WX    TMP DP  RH WIND       PRES   REMARKS
GALLUP         CLOUDY    34  32  92 CALM      29.91R
GRANTS         CLOUDY    32  32  99 SE3       29.93R

$$
NMZ407-409-411-412-311700-
SOUTHERN DESERTS

CITY           SKY/WX    TMP DP  RH WIND       PRES   REMARKS
LORDSBURG      DRIZZLE   43  43 100 SE7       29.90R
DEMING         LGT RAIN  43  43 100 E8        29.92R FOG
LAS CRUCES     RAIN      43  42  97 SE5       29.93R
HOLLOMAN AFB   CLOUDY    42  42 100 NE7       29.92S
T OR C         CLOUDY    42  41  96 CALM      29.91R

$$
NMZ519>523-311700-
CENTRAL VALLEYS/CENTRAL HIGHLANDS

CITY           SKY/WX    TMP DP  RH WIND       PRES   REMARKS
ALBUQUERQUE    LGT RAIN  33  32  96 CALM      29.94S FOG
DOUBLE EAGLE   LGT SNOW  30  30 100 N3        29.93F VSB 1
MORIARTY ARPT  LGT SNOW  31  29  93 CALM      29.95R
CLINES CORNERS LGT SNOW  30  29  96 SE3       29.90S FOG
BELEN          NOT AVBL
SOCORRO        CLOUDY    36  36  99 N6        29.94S FOG     WCI  31

$$
NMZ524>526-539-540-311700-
SOUTHCENTRAL MOUNTAINS

CITY           SKY/WX    TMP DP  RH WIND       PRES   REMARKS
RUIDOSO        NOT AVBL

$$
NMZ527>531-311700-
NORTHEAST HIGHLANDS/NORTHEAST PLAINS

CITY           SKY/WX    TMP DP  RH WIND       PRES   REMARKS
LAS VEGAS      CLOUDY    28  26  92 S12       29.91S WCI  18
RATON          FOG       29  29 100 CALM      29.90F VSB 1/2
CLAYTON        CLOUDY    33  31  92 SW10      29.92F WCI  25

$$
NMZ532>537-311700-
EASTCENTRAL PLAINS

CITY           SKY/WX    TMP DP  RH WIND       PRES   REMARKS
TUCUMCARI      CLOUDY    37  35  92 CALM      29.97S
CANNON AFB     CLOUDY    35  35 100 CALM      29.98F
CLOVIS AIRPORT CLOUDY    34  32  93 SE8       29.98S WCI  27

$$
NMZ028-029-538-311700-
SOUTHEAST PLAINS

CITY           SKY/WX    TMP DP  RH WIND       PRES   REMARKS
ROSWELL        CLOUDY    39  37  92 CALM      29.98S FOG
CARLSBAD       CLOUDY    42  39  89 NW5       29.97S FOG
HOBBS          CLOUDY    41  41 100 CALM      29.99S FOG


$$



USA.gov is the U.S. government's official web portal to all federal, state and local government web resources and services.